Flag for Austria Weather past 2 weeks in Bruck an der Leitha, Lower Austria, Austria

Now
46 °F

Sunny.


Feels Like: 42 °F
Forecast: 36 / 50 °F
Wind: 7 mph from Southeast

Location: Wien / Schwechat-Flughafen

Current Time: Feb 27, 2015 at 6:22:04 PM

Latest Report: Feb 27, 2015 at 5:00 PM


Visibility: 13 mi

Pressure: 29.90 "Hg

Humidity: 68%

Dew point: 36 °F

Location of Bruck an der LeithaLocation

Historic Weather in Bruck an der Leitha — Graph

°F

Bruck an der Leitha temperature yesterday

Maximum temperature yesterday: 44 °F (at 4:00 PM)
Minimum temperature yesterday: 37 °F (at 11:00 PM)
Average temperature yesterday: 41 °F

Past Weeks' High & Low Weather Summary

 TemperatureHumidityPressure
High53 °F (Feb 21, 3:00 PM)100% (Feb 20, 8:00 AM)30.79 "Hg (Feb 20, 8:00 AM)
Low23 °F (Feb 20, 7:00 AM)34% (Feb 21, 12:00 PM)29.59 "Hg (Feb 23, 4:00 PM)
Average38 °F79%30.10 "Hg
* Reported Feb 12 5:00 PM — Feb 27 5:00 PM, Bruck an der Leitha, Weather by CustomWeather, © 2015

Note: Actual official high and low records may vary slightly from our data, if they occured in-between our weather recording intervals... More about our weather records

Advertising

Bruck an der Leitha weather history for previous 24 hours

 ConditionsComfort  
Time TempWeatherWind HumidityBarometerVisibility
5:00 PM
Fri, Feb 27
46 °FSunny.7 mph68%29.90 "Hg12 mi
4:00 PM47 °FPassing clouds.9 mph64%29.90 "Hg11 mi
3:00 PM48 °FPassing clouds.8 mph65%29.89 "Hg10 mi
2:00 PM48 °FPassing clouds.9 mph61%29.88 "Hg10 mi
1:00 PM48 °FPassing clouds.10 mph62%29.90 "Hg12 mi
12:00 PM46 °FPassing clouds.10 mph67%29.93 "Hg7 mi
11:00 AM44 °FPassing clouds.9 mph72%29.94 "Hg9 mi
10:00 AM41 °FSunny.7 mph79%29.94 "Hg7 mi
9:00 AM36 °FLight rain. Passing clouds.N/A93%29.95 "Hg0 mi
8:00 AM32 °FPassing clouds.N/A96%29.96 "Hg2 mi
7:00 AM32 °FSunny.N/A98%29.96 "Hg1 mi
6:00 AM31 °FPassing clouds.N/A98%29.97 "Hg4 mi
5:00 AM31 °FPassing clouds.N/A92%29.98 "Hg7 mi
2:00 AM31 °FPassing clouds.N/A98%30.03 "Hg4 mi
1:00 AM34 °FPassing clouds.N/A90%30.04 "Hg4 mi
12:00 AM35 °FPassing clouds.N/A89%30.05 "Hg6 mi
11:00 PM
Thu, Feb 26
37 °FPassing clouds.N/A84%30.07 "Hg7 mi
10:00 PM39 °FPassing clouds.N/A80%30.09 "Hg8 mi
9:00 PM39 °FOvercast.N/A79%30.11 "Hg10 mi
8:00 PM40 °FPassing clouds.N/A78%30.10 "Hg11 mi
7:00 PM40 °FOvercast.5 mph74%30.10 "Hg12 mi
6:00 PM43 °FOvercast.5 mph71%30.10 "Hg14 mi
Weather by CustomWeather, © 2015

See weather overviewHow to use our weather pages